DELTA 1 DEB, 10752

Orbit data source: Space-Track

DELTA 1 DEB, 10752 is space debris in SSO originally from a launch on Thu, 29 Jul 1976 UTC launched from the Air Force Western Test Range (AFWTR). Debris objects in space refer to the collection of defunct objects orbiting the Earth. Examples of debris include non-operational satellites, rocket bodies, and fragments generated from explosions, collisions, or faulty payload assembly.

Loading next visibility...
Identifier
10752, 1976-077AZ
Orbit
SSO
Country
Flag of USUS
Related business
Manufacturer
Unknown
Mission
Spacecraft
Bus & Motor
Unknown
Mass
Unknown
Launch date (UTC)
1976-07-29 (50 years ago)
Launch vehicle
Unknown
Launch site
Air Force Western Test Range (AFWTR)
Object type
Payload
Rocket body
Debris
Shape & HBR
Unknown shape, 0.1 m
Radar Cross Section
Medium (>0.1 m² and <1 m²)

Expand to show TLE details & history
Last TLE update: 1 day ago

TLE from 1 day ago
0 DELTA 1 DEB
1 10752U 76077AZ  26255.22328058 -.00002409  00000-0 -79507-2 0  9999
2 10752 101.7352 162.1860 0314987 169.3249 345.6240 12.83865142314514
Epoch: 2026-09-12T05:21Z
TLE epoch observation values (Epoch: 2026-09-12T05:21:31.442Z)
Latitude
25.43344°
Longitude
-83.79043°
Altitude
1,094.175 km
Speed
7.418 km/s
True Right ascension
23h 11m 18s
True Declination
25° 18' 23"
Sunlit
Object was in full shadow at epoch
Visualization orbit readout
Latitude
Unknown
Longitude
Unknown
Altitude
Unknown
Speed
Unknown
Apparent Right ascension
Unknown
Apparent Declination
Unknown
Sunlit
N/A
Visualization observer readout
Local Sidereal Time
23:23:45
Azimuth
Unknown
Elevation
Unknown
Doppler factor
Unknown
Orbital elements
Apogee altitude
1,566.057 km
Perigee altitude
1,080.876 km
Semi-major axis
7,701.604 km
Eccentricity
0.0315
Inclination
101.7352°
RAAN
162.186°
Arg. of periapsis
169.3249°
True anomaly
344.69239°
Mean anomaly
345.624°
Eccentric anomaly
345.16182°
Mean motion
3.21123 °/min
Orbital period
112.11 mins
BSTAR
-0.0079507
Loading maneuver chart data...
Computing Atmospheric mass density...
Loading historical data...
Loading historical data...
Loading historical data...
Loading historical data...
Loading historical data...
Loading historical data...
Loading historical data...

Documentation

Showing up to 5 results
|